Location: Dealu Mare
(46.0500°N, 22.8167°E)
Time: 20:34:41
(UTC+00:00)

DMSP B5D1-3 - Pass Details

Date: 15 January 2026
Orbit: 758 x 772 km, 98.5° (Epoch: 10 February)

Event Time Altitude Azimuth Distance (km) Brightness Sun altitude
Rises 04:36:59 0° 174° (S) 3,213 8.0 -15.2°
Reaches altitude 10° 04:39:18 10° 178° (S) 2,290 7.2 -14.8°
Maximum altitude 04:44:18 61° 259° (WSW) 861 4.5 -14.0°
Drops below altitude 10° 04:49:19 10° 340° (NNW) 2,301 6.6 -13.2°
Sets 04:51:39 0° 343° (NNW) 3,230 7.4 -12.8°
